Tracking 18945 objects as of 21-Jan-2018
HD Live streaming from Space Station
objects crossing your sky now

FENGYUN 1C DEB

Track FENGYUN 1C DEB now!
10-day predictions


NORAD ID: 30152
Int'l Code: 1999-025TH
Perigee: 821.9 km
Apogee: 1,096.7 km
Inclination: 99.1 °
Period: 104.1 minutes
Semi major axis: 7330 km
RCS: 0.042 m2 (small)
Launch date: May 10, 1999
Source: People's Republic of China (PRC)
Launch site: Taiyaun Space Center, China (TSC)

Note: This is SATELLITE DEBRIS
aabbcc
Your satellite tracking list
Your tracking list is empty




NASA's NSSDC Master Catalog

Two Line Element Set (TLE):
1 30152U 99025TH  18020.35690701  .00000020  00000-0  51166-4 0  9993
2 30152  99.1272 273.2865 0187457 302.3961  55.9177 13.83318289554130
Source of the keplerian elements: AFSPC